Location: Unspecified
(40.7945°N, 0.0000°E)
Time: 17:59:44
(UTC+00:00)

Courier 1B - Pass Details

Date: 25 January 2021
Orbit: 962 x 1209 km, 28.3° (Epoch: 07 March)

Event Time Altitude Azimuth Distance (km) Brightness Sun altitude
Rises 22:59:05 0° 232° (SW) 3,779 - -62.9°
Reaches altitude 10° 23:02:24 10° 219° (SW) 2,787 - -63.3°
Maximum altitude 23:07:31 23° 169° (S) 1,945 - -63.9°
Drops below altitude 10° 23:12:29 10° 119° (ESE) 2,703 - -64.5°
Sets 23:15:38 0° 105° (ESE) 3,637 - -64.8°
